Year,Month,Day,Hour,Minute,Value (Times are PST for windgust in km/hr)
2016,08,21,00,51,3.20
2016,08,21,00,55,3.20
2016,08,21,00,57,1.60
2016,08,21,02,53,1.60
2016,08,21,02,54,3.20
2016,08,21,02,55,1.60
2016,08,21,03,01,3.20
2016,08,21,03,02,3.20
2016,08,21,03,03,1.60
2016,08,21,03,08,3.20
2016,08,21,03,09,4.80
2016,08,21,03,10,4.80
2016,08,21,03,11,4.80
2016,08,21,03,12,4.80
2016,08,21,03,13,3.20
2016,08,21,03,14,3.20
2016,08,21,03,45,1.60
2016,08,21,03,46,1.60
2016,08,21,05,04,4.80
2016,08,21,05,05,3.20
2016,08,21,05,07,1.60
2016,08,21,05,08,3.20
2016,08,21,05,09,3.20
2016,08,21,05,43,1.60
2016,08,21,05,44,3.20
2016,08,21,05,45,3.20
2016,08,21,05,46,3.20
2016,08,21,05,49,8.10
2016,08,21,05,50,1.60
2016,08,21,05,51,6.40
2016,08,21,05,52,4.80
2016,08,21,05,55,3.20
2016,08,21,05,56,4.80
2016,08,21,05,57,6.40
2016,08,21,05,58,8.10
2016,08,21,05,59,8.10
2016,08,21,06,00,9.60
2016,08,21,06,01,9.60
2016,08,21,06,02,9.60
2016,08,21,06,03,3.20
2016,08,21,06,04,1.60
2016,08,21,06,05,8.10
2016,08,21,06,06,14.50
2016,08,21,06,07,11.30
2016,08,21,06,08,1.60
2016,08,21,06,09,4.80
2016,08,21,06,10,3.20
2016,08,21,06,11,8.10
2016,08,21,06,12,4.80
2016,08,21,06,13,4.80
2016,08,21,06,14,3.20
2016,08,21,06,15,4.80
2016,08,21,06,16,6.40
2016,08,21,06,17,6.40
2016,08,21,06,18,11.30
2016,08,21,06,19,11.30
2016,08,21,06,20,11.30
2016,08,21,06,21,4.80
2016,08,21,06,23,1.60
2016,08,21,06,24,4.80
2016,08,21,06,25,8.10
2016,08,21,06,26,9.60
2016,08,21,06,27,11.30
2016,08,21,06,28,8.10
2016,08,21,06,29,1.60
2016,08,21,06,30,4.80
2016,08,21,06,31,9.60
2016,08,21,06,32,4.80
2016,08,21,06,33,8.10
2016,08,21,06,34,3.20
2016,08,21,06,35,4.80
2016,08,21,06,36,1.60
2016,08,21,06,37,3.20
2016,08,21,06,41,4.80
2016,08,21,06,42,6.40
2016,08,21,06,43,1.60
2016,08,21,06,44,8.10
2016,08,21,06,45,11.30
2016,08,21,06,46,8.10
2016,08,21,06,47,9.60
2016,08,21,06,48,11.30
2016,08,21,06,49,11.30
2016,08,21,06,50,6.40
2016,08,21,06,51,6.40
2016,08,21,06,52,8.10
2016,08,21,06,53,11.30
2016,08,21,06,54,16.10
2016,08,21,06,55,8.10
2016,08,21,06,56,6.40
2016,08,21,06,57,12.90
2016,08,21,06,58,9.60
2016,08,21,06,59,11.30
2016,08,21,07,00,11.30
2016,08,21,07,01,9.60
2016,08,21,07,02,9.60
2016,08,21,07,03,11.30
2016,08,21,07,04,14.50
2016,08,21,07,05,19.30
2016,08,21,07,06,19.30
2016,08,21,07,07,11.30
2016,08,21,07,08,11.30
2016,08,21,07,09,8.10
2016,08,21,07,10,11.30
2016,08,21,07,11,14.50
2016,08,21,07,12,6.40
2016,08,21,07,13,9.60
2016,08,21,07,14,16.10
2016,08,21,07,15,11.30
2016,08,21,07,16,9.60
2016,08,21,07,17,11.30
2016,08,21,07,18,14.50
2016,08,21,07,19,12.90
2016,08,21,07,20,11.30
2016,08,21,07,21,4.80
2016,08,21,07,22,6.40
2016,08,21,07,23,9.60
2016,08,21,07,24,9.60
2016,08,21,07,25,11.30
2016,08,21,07,26,20.90
2016,08,21,07,27,19.30
2016,08,21,07,28,11.30
2016,08,21,07,29,17.70
2016,08,21,07,30,14.50
2016,08,21,07,31,11.30
2016,08,21,07,32,9.60
2016,08,21,07,33,22.50
2016,08,21,07,34,19.30
2016,08,21,07,35,16.10
2016,08,21,07,36,19.30
2016,08,21,07,37,24.20
2016,08,21,07,38,19.30
2016,08,21,07,39,22.50
2016,08,21,07,40,12.90
2016,08,21,07,41,14.50
2016,08,21,07,42,11.30
2016,08,21,07,43,19.30
2016,08,21,07,44,16.10
2016,08,21,07,45,16.10
2016,08,21,07,46,19.30
2016,08,21,07,47,17.70
2016,08,21,07,48,17.70
2016,08,21,07,49,17.70
2016,08,21,07,50,17.70
2016,08,21,07,51,25.70
2016,08,21,07,52,17.70
2016,08,21,07,53,17.70
2016,08,21,07,54,16.10
2016,08,21,07,55,17.70
2016,08,21,07,56,9.60
2016,08,21,07,57,16.10
2016,08,21,07,58,9.60
2016,08,21,07,59,14.50
2016,08,21,08,00,22.50
2016,08,21,08,01,14.50
2016,08,21,08,02,24.20
2016,08,21,08,03,17.70
2016,08,21,08,04,14.50
2016,08,21,08,05,17.70
2016,08,21,08,06,14.50
2016,08,21,08,07,14.50
2016,08,21,08,08,9.60
2016,08,21,08,09,16.10
2016,08,21,08,10,9.60
2016,08,21,08,11,11.30
2016,08,21,08,12,22.50
2016,08,21,08,13,17.70
2016,08,21,08,14,22.50
2016,08,21,08,15,19.30
2016,08,21,08,16,19.30
2016,08,21,08,17,9.60
2016,08,21,08,18,17.70
2016,08,21,08,19,12.90
2016,08,21,08,20,8.10
2016,08,21,08,21,17.70
2016,08,21,08,22,11.30
2016,08,21,08,23,20.90
2016,08,21,08,24,12.90
2016,08,21,08,25,14.50
2016,08,21,08,26,11.30
2016,08,21,08,27,11.30
2016,08,21,08,28,14.50
2016,08,21,08,29,16.10
2016,08,21,08,30,6.40
2016,08,21,08,31,6.40
2016,08,21,08,32,22.50
2016,08,21,08,33,20.90
2016,08,21,08,34,9.60
2016,08,21,08,35,11.30
2016,08,21,08,36,17.70
2016,08,21,08,37,11.30
2016,08,21,08,38,12.90
2016,08,21,08,39,17.70
2016,08,21,08,40,16.10
2016,08,21,08,41,16.10
2016,08,21,08,42,14.50
2016,08,21,08,43,27.40
2016,08,21,08,44,22.50
2016,08,21,08,45,16.10
2016,08,21,08,46,19.30
2016,08,21,08,47,17.70
2016,08,21,08,48,11.30
2016,08,21,08,49,12.90
2016,08,21,08,50,22.50
2016,08,21,08,51,24.20
2016,08,21,08,52,16.10
2016,08,21,08,53,17.70
2016,08,21,08,54,19.30
2016,08,21,08,55,25.70
2016,08,21,08,56,20.90
2016,08,21,08,57,19.30
2016,08,21,08,58,25.70
2016,08,21,08,59,20.90
2016,08,21,09,00,16.10
2016,08,21,09,01,17.70
2016,08,21,09,02,24.20
2016,08,21,09,03,17.70
2016,08,21,09,04,16.10
2016,08,21,09,05,19.30
2016,08,21,09,06,16.10
2016,08,21,09,07,17.70
2016,08,21,09,08,17.70
2016,08,21,09,09,11.30
2016,08,21,09,10,22.50
2016,08,21,09,11,19.30
2016,08,21,09,12,14.50
2016,08,21,09,13,14.50
2016,08,21,09,14,16.10
2016,08,21,09,15,14.50
2016,08,21,09,16,11.30
2016,08,21,09,17,20.90
2016,08,21,09,18,20.90
2016,08,21,09,19,22.50
2016,08,21,09,20,16.10
2016,08,21,09,21,19.30
2016,08,21,09,22,17.70
2016,08,21,09,23,19.30
2016,08,21,09,24,8.10
2016,08,21,09,25,14.50
2016,08,21,09,26,17.70
2016,08,21,09,27,6.40
2016,08,21,09,28,17.70
2016,08,21,09,29,22.50
2016,08,21,09,30,20.90
2016,08,21,09,31,19.30
2016,08,21,09,32,14.50
2016,08,21,09,33,27.40
2016,08,21,09,34,20.90
2016,08,21,09,35,19.30
2016,08,21,09,36,27.40
2016,08,21,09,37,24.20
2016,08,21,09,38,22.50
2016,08,21,09,39,27.40
2016,08,21,09,40,22.50
2016,08,21,09,41,22.50
2016,08,21,09,42,19.30
2016,08,21,09,43,22.50
2016,08,21,09,44,22.50
2016,08,21,09,45,33.80
2016,08,21,09,46,22.50
2016,08,21,09,47,25.70
2016,08,21,09,48,19.30
2016,08,21,09,49,27.40
2016,08,21,09,50,20.90
2016,08,21,09,51,24.20
2016,08,21,09,52,30.60
2016,08,21,09,53,25.70
2016,08,21,09,54,30.60
2016,08,21,09,55,19.30
2016,08,21,09,56,25.70
2016,08,21,09,57,27.40
2016,08,21,09,58,30.60
2016,08,21,09,59,29.00
2016,08,21,10,00,24.20
2016,08,21,10,01,37.00
2016,08,21,10,02,37.00
2016,08,21,10,03,29.00
2016,08,21,10,04,22.50
2016,08,21,10,05,16.10
2016,08,21,10,06,20.90
2016,08,21,10,07,20.90
2016,08,21,10,08,30.60
2016,08,21,10,09,29.00
2016,08,21,10,10,32.20
2016,08,21,10,11,20.90
2016,08,21,10,12,32.20
2016,08,21,10,13,29.00
2016,08,21,10,14,37.00
2016,08,21,10,15,29.00
2016,08,21,10,16,40.20
2016,08,21,10,17,45.10
2016,08,21,10,18,24.20
2016,08,21,10,19,35.40
2016,08,21,10,20,40.20
2016,08,21,10,21,43.50
2016,08,21,10,22,40.20
2016,08,21,10,23,38.60
2016,08,21,10,24,30.60
2016,08,21,10,25,37.00
2016,08,21,10,26,29.00
2016,08,21,10,27,30.60
2016,08,21,10,28,37.00
2016,08,21,10,29,25.70
2016,08,21,10,30,45.10
2016,08,21,10,31,32.20
2016,08,21,10,32,30.60
2016,08,21,10,33,32.20
2016,08,21,10,34,32.20
2016,08,21,10,35,20.90
2016,08,21,10,36,27.40
2016,08,21,10,37,25.70
2016,08,21,10,38,30.60
2016,08,21,10,39,29.00
2016,08,21,10,40,35.40
2016,08,21,10,41,27.40
2016,08,21,10,42,38.60
2016,08,21,10,43,32.20
2016,08,21,10,44,30.60
2016,08,21,10,45,32.20
2016,08,21,10,46,29.00
2016,08,21,10,47,29.00
2016,08,21,10,48,33.80
2016,08,21,10,49,29.00
2016,08,21,10,50,35.40
2016,08,21,10,51,35.40
2016,08,21,10,52,29.00
2016,08,21,10,53,40.20
2016,08,21,10,54,32.20
2016,08,21,10,55,38.60
2016,08,21,10,56,33.80
2016,08,21,10,57,30.60
2016,08,21,10,58,30.60
2016,08,21,10,59,40.20
2016,08,21,11,00,25.70
2016,08,21,11,01,25.70
2016,08,21,11,02,27.40
2016,08,21,11,03,33.80
2016,08,21,11,04,32.20
2016,08,21,11,05,37.00
2016,08,21,11,06,22.50
2016,08,21,11,07,30.60
2016,08,21,11,08,33.80
2016,08,21,11,09,29.00
2016,08,21,11,10,22.50
2016,08,21,11,11,33.80
2016,08,21,11,12,33.80
2016,08,21,11,13,38.60
2016,08,21,11,14,29.00
2016,08,21,11,15,30.60
2016,08,21,11,16,30.60
2016,08,21,11,17,22.50
2016,08,21,11,18,25.70
2016,08,21,11,19,35.40
2016,08,21,11,20,22.50
2016,08,21,11,21,29.00
2016,08,21,11,22,27.40
2016,08,21,11,23,27.40
2016,08,21,11,24,32.20
2016,08,21,11,25,22.50
2016,08,21,11,26,25.70
2016,08,21,11,27,29.00
2016,08,21,11,28,27.40
2016,08,21,11,29,27.40
2016,08,21,11,30,29.00
2016,08,21,11,31,27.40
2016,08,21,11,32,19.30
2016,08,21,11,33,27.40
2016,08,21,11,34,32.20
2016,08,21,11,35,33.80
2016,08,21,11,36,30.60
2016,08,21,11,37,33.80
2016,08,21,11,38,25.70
2016,08,21,11,39,30.60
2016,08,21,11,40,30.60
2016,08,21,11,41,25.70
2016,08,21,11,42,32.20
2016,08,21,11,43,19.30
2016,08,21,11,44,19.30
2016,08,21,11,45,35.40
2016,08,21,11,46,33.80
2016,08,21,11,47,33.80
2016,08,21,11,48,35.40
2016,08,21,11,49,32.20
2016,08,21,11,50,29.00
2016,08,21,11,51,22.50
2016,08,21,11,52,30.60
2016,08,21,11,53,25.70
2016,08,21,11,54,32.20
2016,08,21,11,55,32.20
2016,08,21,11,56,40.20
2016,08,21,11,57,33.80
2016,08,21,11,58,37.00
2016,08,21,11,59,33.80
2016,08,21,12,00,38.60
2016,08,21,12,01,41.80
2016,08,21,12,02,29.00
2016,08,21,12,03,35.40
2016,08,21,12,04,27.40
2016,08,21,12,05,38.60
2016,08,21,12,06,32.20
2016,08,21,12,07,27.40
2016,08,21,12,08,40.20
2016,08,21,12,09,35.40
2016,08,21,12,10,32.20
2016,08,21,12,11,37.00
2016,08,21,12,12,32.20
2016,08,21,12,13,38.60
2016,08,21,12,14,30.60
2016,08,21,12,15,24.20
2016,08,21,12,16,24.20
2016,08,21,12,17,27.40
2016,08,21,12,18,19.30
2016,08,21,12,19,33.80
2016,08,21,12,20,20.90
2016,08,21,12,21,41.80
2016,08,21,12,22,33.80
2016,08,21,12,23,40.20
2016,08,21,12,24,30.60
2016,08,21,12,25,33.80
2016,08,21,12,26,33.80
2016,08,21,12,27,30.60
2016,08,21,12,28,25.70
2016,08,21,12,29,33.80
2016,08,21,12,30,25.70
2016,08,21,12,31,38.60
2016,08,21,12,32,27.40
2016,08,21,12,33,25.70
2016,08,21,12,34,37.00
2016,08,21,12,35,25.70
2016,08,21,12,36,27.40
2016,08,21,12,37,25.70
2016,08,21,12,38,30.60
2016,08,21,12,39,33.80
2016,08,21,12,40,29.00
2016,08,21,12,41,24.20
2016,08,21,12,42,22.50
2016,08,21,12,43,29.00
2016,08,21,12,44,37.00
2016,08,21,12,45,35.40
2016,08,21,12,46,29.00
2016,08,21,12,47,20.90
2016,08,21,12,48,19.30
2016,08,21,12,49,17.70
2016,08,21,12,50,32.20
2016,08,21,12,51,17.70
2016,08,21,12,52,24.20
2016,08,21,12,53,17.70
2016,08,21,12,54,24.20
2016,08,21,12,55,24.20
2016,08,21,12,56,14.50
2016,08,21,12,57,27.40
2016,08,21,12,58,35.40
2016,08,21,12,59,22.50
2016,08,21,13,00,29.00
2016,08,21,13,01,30.60
2016,08,21,13,02,33.80
2016,08,21,13,03,29.00
2016,08,21,13,04,29.00
2016,08,21,13,05,40.20
2016,08,21,13,06,43.50
2016,08,21,13,07,38.60
2016,08,21,13,08,27.40
2016,08,21,13,09,22.50
2016,08,21,13,10,25.70
2016,08,21,13,11,27.40
2016,08,21,13,12,25.70
2016,08,21,13,13,29.00
2016,08,21,13,14,38.60
2016,08,21,13,15,32.20
2016,08,21,13,16,37.00
2016,08,21,13,17,22.50
2016,08,21,13,18,27.40
2016,08,21,13,19,32.20
2016,08,21,13,20,30.60
2016,08,21,13,21,30.60
2016,08,21,13,22,37.00
2016,08,21,13,23,35.40
2016,08,21,13,24,37.00
2016,08,21,13,25,37.00
2016,08,21,13,26,25.70
2016,08,21,13,27,40.20
2016,08,21,13,28,40.20
2016,08,21,13,29,38.60
2016,08,21,13,30,30.60
2016,08,21,13,31,29.00
2016,08,21,13,32,32.20
2016,08,21,13,33,25.70
2016,08,21,13,34,32.20
2016,08,21,13,35,29.00
2016,08,21,13,36,27.40
2016,08,21,13,37,37.00
2016,08,21,13,38,25.70
2016,08,21,13,39,29.00
2016,08,21,13,40,38.60
2016,08,21,13,41,40.20
2016,08,21,13,42,29.00
2016,08,21,13,43,22.50
2016,08,21,13,44,33.80
2016,08,21,13,45,38.60
2016,08,21,13,46,30.60
2016,08,21,13,47,22.50
2016,08,21,13,48,19.30
2016,08,21,13,49,25.70
2016,08,21,13,50,24.20
2016,08,21,13,51,22.50
2016,08,21,13,52,17.70
2016,08,21,13,53,33.80
2016,08,21,13,54,20.90
2016,08,21,13,55,16.10
2016,08,21,13,56,35.40
2016,08,21,13,57,30.60
2016,08,21,13,58,29.00
2016,08,21,13,59,27.40
2016,08,21,14,00,25.70
2016,08,21,14,01,22.50
2016,08,21,14,02,25.70
2016,08,21,14,03,25.70
2016,08,21,14,04,37.00
2016,08,21,14,05,32.20
2016,08,21,14,06,17.70
2016,08,21,14,07,29.00
2016,08,21,14,08,27.40
2016,08,21,14,09,25.70
2016,08,21,14,10,27.40
2016,08,21,14,11,24.20
2016,08,21,14,12,24.20
2016,08,21,14,13,19.30
2016,08,21,14,14,29.00
2016,08,21,14,15,27.40
2016,08,21,14,16,30.60
2016,08,21,14,17,24.20
2016,08,21,14,18,29.00
2016,08,21,14,19,22.50
2016,08,21,14,20,24.20
2016,08,21,14,21,24.20
2016,08,21,14,22,32.20
2016,08,21,14,23,22.50
2016,08,21,14,24,22.50
2016,08,21,14,25,30.60
2016,08,21,14,26,22.50
2016,08,21,14,27,19.30
2016,08,21,14,28,22.50
2016,08,21,14,29,29.00
2016,08,21,14,30,27.40
2016,08,21,14,31,14.50
2016,08,21,14,32,27.40
2016,08,21,14,33,25.70
2016,08,21,14,34,30.60
2016,08,21,14,35,35.40
2016,08,21,14,36,32.20
2016,08,21,14,37,40.20
2016,08,21,14,38,37.00
2016,08,21,14,39,35.40
2016,08,21,14,40,22.50
2016,08,21,14,41,35.40
2016,08,21,14,42,29.00
2016,08,21,14,43,27.40
2016,08,21,14,44,27.40
2016,08,21,14,45,45.10
2016,08,21,14,46,41.80
2016,08,21,14,47,25.70
2016,08,21,14,48,38.60
2016,08,21,14,49,25.70
2016,08,21,14,50,30.60
2016,08,21,14,51,38.60
2016,08,21,14,52,30.60
2016,08,21,14,53,33.80
2016,08,21,14,54,22.50
2016,08,21,14,55,25.70
2016,08,21,14,56,41.80
2016,08,21,14,57,41.80
2016,08,21,14,58,30.60
2016,08,21,14,59,43.50
2016,08,21,15,00,30.60
2016,08,21,15,01,43.50
2016,08,21,15,02,40.20
2016,08,21,15,03,27.40
2016,08,21,15,04,35.40
2016,08,21,15,05,37.00
2016,08,21,15,06,32.20
2016,08,21,15,07,38.60
2016,08,21,15,08,40.20
2016,08,21,15,09,25.70
2016,08,21,15,10,40.20
2016,08,21,15,11,45.10
2016,08,21,15,12,35.40
2016,08,21,15,13,33.80
2016,08,21,15,14,37.00
2016,08,21,15,15,35.40
2016,08,21,15,16,30.60
2016,08,21,15,17,41.80
2016,08,21,15,18,27.40
2016,08,21,15,19,32.20
2016,08,21,15,20,38.60
2016,08,21,15,21,45.10
2016,08,21,15,22,30.60
2016,08,21,15,23,32.20
2016,08,21,15,24,24.20
2016,08,21,15,25,38.60
2016,08,21,15,26,46.70
2016,08,21,15,27,41.80
2016,08,21,15,28,38.60
2016,08,21,15,29,38.60
2016,08,21,15,30,40.20
2016,08,21,15,31,38.60
2016,08,21,15,32,38.60
2016,08,21,15,33,33.80
2016,08,21,15,34,32.20
2016,08,21,15,35,41.80
2016,08,21,15,36,40.20
2016,08,21,15,37,33.80
2016,08,21,15,38,30.60
2016,08,21,15,39,29.00
2016,08,21,15,40,40.20
2016,08,21,15,41,53.10
2016,08,21,15,42,30.60
2016,08,21,15,43,30.60
2016,08,21,15,44,35.40
2016,08,21,15,45,29.00
2016,08,21,15,46,29.00
2016,08,21,15,47,29.00
2016,08,21,15,48,24.20
2016,08,21,15,49,33.80
2016,08,21,15,50,32.20
2016,08,21,15,51,20.90
2016,08,21,15,52,35.40
2016,08,21,15,53,22.50
2016,08,21,15,54,35.40
2016,08,21,15,55,40.20
2016,08,21,15,56,29.00
2016,08,21,15,57,35.40
2016,08,21,15,58,45.10
2016,08,21,15,59,35.40
2016,08,21,16,00,33.80
2016,08,21,16,01,33.80
2016,08,21,16,02,29.00
2016,08,21,16,03,30.60
2016,08,21,16,04,17.70
2016,08,21,16,05,20.90
2016,08,21,16,06,29.00
2016,08,21,16,07,38.60
2016,08,21,16,08,41.80
2016,08,21,16,09,33.80
2016,08,21,16,10,35.40
2016,08,21,16,11,27.40
2016,08,21,16,12,33.80
2016,08,21,16,13,38.60
2016,08,21,16,14,43.50
2016,08,21,16,15,33.80
2016,08,21,16,16,22.50
2016,08,21,16,17,20.90
2016,08,21,16,18,35.40
2016,08,21,16,19,29.00
2016,08,21,16,20,32.20
2016,08,21,16,21,32.20
2016,08,21,16,22,24.20
2016,08,21,16,23,24.20
2016,08,21,16,24,20.90
2016,08,21,16,25,27.40
2016,08,21,16,26,25.70
2016,08,21,16,27,30.60
2016,08,21,16,28,29.00
2016,08,21,16,29,27.40
2016,08,21,16,30,30.60
2016,08,21,16,31,37.00
2016,08,21,16,32,38.60
2016,08,21,16,33,33.80
2016,08,21,16,34,30.60
2016,08,21,16,35,40.20
2016,08,21,16,36,37.00
2016,08,21,16,37,33.80
2016,08,21,16,38,41.80
2016,08,21,16,39,33.80
2016,08,21,16,40,32.20
2016,08,21,16,41,24.20
2016,08,21,16,42,43.50
2016,08,21,16,43,37.00
2016,08,21,16,44,43.50
2016,08,21,16,45,30.60
2016,08,21,16,46,25.70
2016,08,21,16,47,30.60
2016,08,21,16,48,27.40
2016,08,21,16,49,24.20
2016,08,21,16,50,25.70
2016,08,21,16,51,20.90
2016,08,21,16,52,19.30
2016,08,21,16,53,24.20
2016,08,21,16,54,22.50
2016,08,21,16,55,29.00
2016,08,21,16,56,17.70
2016,08,21,16,57,37.00
2016,08,21,16,58,29.00
2016,08,21,16,59,11.30
2016,08,21,17,00,30.60
2016,08,21,17,01,24.20
2016,08,21,17,02,29.00
2016,08,21,17,03,11.30
2016,08,21,17,04,20.90
2016,08,21,17,05,40.20
2016,08,21,17,06,27.40
2016,08,21,17,07,27.40
2016,08,21,17,08,38.60
2016,08,21,17,09,27.40
2016,08,21,17,10,27.40
2016,08,21,17,11,22.50
2016,08,21,17,12,24.20
2016,08,21,17,13,29.00
2016,08,21,17,14,32.20
2016,08,21,17,15,20.90
2016,08,21,17,16,29.00
2016,08,21,17,17,30.60
2016,08,21,17,18,33.80
2016,08,21,17,19,20.90
2016,08,21,17,20,27.40
2016,08,21,17,21,24.20
2016,08,21,17,22,38.60
2016,08,21,17,23,29.00
2016,08,21,17,24,38.60
2016,08,21,17,25,27.40
2016,08,21,17,26,33.80
2016,08,21,17,27,30.60
2016,08,21,17,28,33.80
2016,08,21,17,29,27.40
2016,08,21,17,30,30.60
2016,08,21,17,31,29.00
2016,08,21,17,32,32.20
2016,08,21,17,33,32.20
2016,08,21,17,34,30.60
2016,08,21,17,35,22.50
2016,08,21,17,36,33.80
2016,08,21,17,37,30.60
2016,08,21,17,38,43.50
2016,08,21,17,39,43.50
2016,08,21,17,40,40.20
2016,08,21,17,41,30.60
2016,08,21,17,42,32.20
2016,08,21,17,43,33.80
2016,08,21,17,44,35.40
2016,08,21,17,45,33.80
2016,08,21,17,46,30.60
2016,08,21,17,47,43.50
2016,08,21,17,48,46.70
2016,08,21,17,49,38.60
2016,08,21,17,50,32.20
2016,08,21,17,51,43.50
2016,08,21,17,52,20.90
2016,08,21,17,53,19.30
2016,08,21,17,54,41.80
2016,08,21,17,55,27.40
2016,08,21,17,56,20.90
2016,08,21,17,57,24.20
2016,08,21,17,58,22.50
2016,08,21,17,59,30.60
2016,08,21,18,00,32.20
2016,08,21,18,01,43.50
2016,08,21,18,02,40.20
2016,08,21,18,03,33.80
2016,08,21,18,04,30.60
2016,08,21,18,05,20.90
2016,08,21,18,06,32.20
2016,08,21,18,07,29.00
2016,08,21,18,08,22.50
2016,08,21,18,09,25.70
2016,08,21,18,10,20.90
2016,08,21,18,11,27.40
2016,08,21,18,12,29.00
2016,08,21,18,13,27.40
2016,08,21,18,14,20.90
2016,08,21,18,15,17.70
2016,08,21,18,16,33.80
2016,08,21,18,17,32.20
2016,08,21,18,18,35.40
2016,08,21,18,19,30.60
2016,08,21,18,20,32.20
2016,08,21,18,21,24.20
2016,08,21,18,22,27.40
2016,08,21,18,23,22.50
2016,08,21,18,24,20.90
2016,08,21,18,25,24.20
2016,08,21,18,26,29.00
2016,08,21,18,27,24.20
2016,08,21,18,28,33.80
2016,08,21,18,29,24.20
2016,08,21,18,30,24.20
2016,08,21,18,31,17.70
2016,08,21,18,32,17.70
2016,08,21,18,33,19.30
2016,08,21,18,34,25.70
2016,08,21,18,35,24.20
2016,08,21,18,36,32.20
2016,08,21,18,37,30.60
2016,08,21,18,38,35.40
2016,08,21,18,39,30.60
2016,08,21,18,40,27.40
2016,08,21,18,41,32.20
2016,08,21,18,42,29.00
2016,08,21,18,43,33.80
2016,08,21,18,44,32.20
2016,08,21,18,45,32.20
2016,08,21,18,46,29.00
2016,08,21,18,47,25.70
2016,08,21,18,48,29.00
2016,08,21,18,49,22.50
2016,08,21,18,50,27.40
2016,08,21,18,51,33.80
2016,08,21,18,52,27.40
2016,08,21,18,53,32.20
2016,08,21,18,54,30.60
2016,08,21,18,55,38.60
2016,08,21,18,56,40.20
2016,08,21,18,57,22.50
2016,08,21,18,58,30.60
2016,08,21,18,59,24.20
2016,08,21,19,00,32.20
2016,08,21,19,01,32.20
2016,08,21,19,02,27.40
2016,08,21,19,03,27.40
2016,08,21,19,04,20.90
2016,08,21,19,05,24.20
2016,08,21,19,06,32.20
2016,08,21,19,07,32.20
2016,08,21,19,08,30.60
2016,08,21,19,09,22.50
2016,08,21,19,10,37.00
2016,08,21,19,11,20.90
2016,08,21,19,12,20.90
2016,08,21,19,13,38.60
2016,08,21,19,14,25.70
2016,08,21,19,15,32.20
2016,08,21,19,16,35.40
2016,08,21,19,17,40.20
2016,08,21,19,18,35.40
2016,08,21,19,19,25.70
2016,08,21,19,20,24.20
2016,08,21,19,21,16.10
2016,08,21,19,22,32.20
2016,08,21,19,23,33.80
2016,08,21,19,24,30.60
2016,08,21,19,25,24.20
2016,08,21,19,26,33.80
2016,08,21,19,27,27.40
2016,08,21,19,28,27.40
2016,08,21,19,29,25.70
2016,08,21,19,30,40.20
2016,08,21,19,31,30.60
2016,08,21,19,32,24.20
2016,08,21,19,33,22.50
2016,08,21,19,34,30.60
2016,08,21,19,35,33.80
2016,08,21,19,36,25.70
2016,08,21,19,37,20.90
2016,08,21,19,38,20.90
2016,08,21,19,39,37.00
2016,08,21,19,40,35.40
2016,08,21,19,41,38.60
2016,08,21,19,42,35.40
2016,08,21,19,43,33.80
2016,08,21,19,44,29.00
2016,08,21,19,45,29.00
2016,08,21,19,46,29.00
2016,08,21,19,47,25.70
2016,08,21,19,48,25.70
2016,08,21,19,49,33.80
2016,08,21,19,50,30.60
2016,08,21,19,51,30.60
2016,08,21,19,52,22.50
2016,08,21,19,53,30.60
2016,08,21,19,54,30.60
2016,08,21,19,55,33.80
2016,08,21,19,56,27.40
2016,08,21,19,57,29.00
2016,08,21,19,58,37.00
2016,08,21,19,59,37.00
2016,08,21,20,00,32.20
2016,08,21,20,01,37.00
2016,08,21,20,02,27.40
2016,08,21,20,03,40.20
2016,08,21,20,04,30.60
2016,08,21,20,05,27.40
2016,08,21,20,06,19.30
2016,08,21,20,07,19.30
2016,08,21,20,08,29.00
2016,08,21,20,09,35.40
2016,08,21,20,10,19.30
2016,08,21,20,11,30.60
2016,08,21,20,12,38.60
2016,08,21,20,13,17.70
2016,08,21,20,14,16.10
2016,08,21,20,15,16.10
2016,08,21,20,16,30.60
2016,08,21,20,17,24.20
2016,08,21,20,18,20.90
2016,08,21,20,19,16.10
2016,08,21,20,20,20.90
2016,08,21,20,21,11.30
2016,08,21,20,22,20.90
2016,08,21,20,23,17.70
2016,08,21,20,24,16.10
2016,08,21,20,25,27.40
2016,08,21,20,26,24.20
2016,08,21,20,27,17.70
2016,08,21,20,28,16.10
2016,08,21,20,29,16.10
2016,08,21,20,30,24.20
2016,08,21,20,31,17.70
2016,08,21,20,32,27.40
2016,08,21,20,33,25.70
2016,08,21,20,34,11.30
2016,08,21,20,35,20.90
2016,08,21,20,36,22.50
2016,08,21,20,37,22.50
2016,08,21,20,38,22.50
2016,08,21,20,39,25.70
2016,08,21,20,40,16.10
2016,08,21,20,41,19.30
2016,08,21,20,42,11.30
2016,08,21,20,43,17.70
2016,08,21,20,44,16.10
2016,08,21,20,45,17.70
2016,08,21,20,46,24.20
2016,08,21,20,47,19.30
2016,08,21,20,48,20.90
2016,08,21,20,49,22.50
2016,08,21,20,50,25.70
2016,08,21,20,51,24.20
2016,08,21,20,52,20.90
2016,08,21,20,53,16.10
2016,08,21,20,54,17.70
2016,08,21,20,55,24.20
2016,08,21,20,56,17.70
2016,08,21,20,57,20.90
2016,08,21,20,58,20.90
2016,08,21,20,59,27.40
2016,08,21,21,00,25.70
2016,08,21,21,01,25.70
2016,08,21,21,02,20.90
2016,08,21,21,03,25.70
2016,08,21,21,04,27.40
2016,08,21,21,05,17.70
2016,08,21,21,06,32.20
2016,08,21,21,07,24.20
2016,08,21,21,08,30.60
2016,08,21,21,09,27.40
2016,08,21,21,10,24.20
2016,08,21,21,11,22.50
2016,08,21,21,12,16.10
2016,08,21,21,13,22.50
2016,08,21,21,14,24.20
2016,08,21,21,15,19.30
2016,08,21,21,16,22.50
2016,08,21,21,17,19.30
2016,08,21,21,18,19.30
2016,08,21,21,19,12.90
2016,08,21,21,20,19.30
2016,08,21,21,21,14.50
2016,08,21,21,22,14.50
2016,08,21,21,23,19.30
2016,08,21,21,24,19.30
2016,08,21,21,25,20.90
2016,08,21,21,26,19.30
2016,08,21,21,27,24.20
2016,08,21,21,28,17.70
2016,08,21,21,29,27.40
2016,08,21,21,30,20.90
2016,08,21,21,31,25.70
2016,08,21,21,32,22.50
2016,08,21,21,33,20.90
2016,08,21,21,34,19.30
2016,08,21,21,35,22.50
2016,08,21,21,36,19.30
2016,08,21,21,37,14.50
2016,08,21,21,38,16.10
2016,08,21,21,39,17.70
2016,08,21,21,40,19.30
2016,08,21,21,41,20.90
2016,08,21,21,42,30.60
2016,08,21,21,43,20.90
2016,08,21,21,44,20.90
2016,08,21,21,45,19.30
2016,08,21,21,46,27.40
2016,08,21,21,47,22.50
2016,08,21,21,48,25.70
2016,08,21,21,49,20.90
2016,08,21,21,50,19.30
2016,08,21,21,51,17.70
2016,08,21,21,52,19.30
2016,08,21,21,53,17.70
2016,08,21,21,54,24.20
2016,08,21,21,55,25.70
2016,08,21,21,56,17.70
2016,08,21,21,57,17.70
2016,08,21,21,58,17.70
2016,08,21,21,59,20.90
2016,08,21,22,00,19.30
2016,08,21,22,01,20.90
2016,08,21,22,02,24.20
2016,08,21,22,03,22.50
2016,08,21,22,04,20.90
2016,08,21,22,05,16.10
2016,08,21,22,06,17.70
2016,08,21,22,07,12.90
2016,08,21,22,08,19.30
2016,08,21,22,09,25.70
2016,08,21,22,10,16.10
2016,08,21,22,11,14.50
2016,08,21,22,12,17.70
2016,08,21,22,13,11.30
2016,08,21,22,14,19.30
2016,08,21,22,15,14.50
2016,08,21,22,16,22.50
2016,08,21,22,17,22.50
2016,08,21,22,18,14.50
2016,08,21,22,19,16.10
2016,08,21,22,20,19.30
2016,08,21,22,21,24.20
2016,08,21,22,22,12.90
2016,08,21,22,23,25.70
2016,08,21,22,24,20.90
2016,08,21,22,25,20.90
2016,08,21,22,26,17.70
2016,08,21,22,27,17.70
2016,08,21,22,28,20.90
2016,08,21,22,29,11.30
2016,08,21,22,30,14.50
2016,08,21,22,31,14.50
2016,08,21,22,32,14.50
2016,08,21,22,33,20.90
2016,08,21,22,34,17.70
2016,08,21,22,35,14.50
2016,08,21,22,36,11.30
2016,08,21,22,37,16.10
2016,08,21,22,38,16.10
2016,08,21,22,39,16.10
2016,08,21,22,40,11.30
2016,08,21,22,41,24.20
2016,08,21,22,42,22.50
2016,08,21,22,43,14.50
2016,08,21,22,44,17.70
2016,08,21,22,45,22.50
2016,08,21,22,46,17.70
2016,08,21,22,47,11.30
2016,08,21,22,48,24.20
2016,08,21,22,49,22.50
2016,08,21,22,50,16.10
2016,08,21,22,51,19.30